SB KEPS @ AMSAT $ORB15072.O Orbital Elements 15072.OSCAR
HR AMSAT ORBITAL ELEMENTS FOR OSCAR SATELLITES FROM WA5QGD FORT WORTH,TX March 13, 2015 BID: ORB15072.O TO ALL RADIO AMATEURS BT
Satellite: AO-07 Catalog number: 07530 Epoch time: 15071.76960916 Element set: 999 Inclination: 101.5105 deg RA of node: 050.1123 deg Eccentricity: 0.0012217 Arg of perigee: 129.6980 deg Mean anomaly: 351.2828 deg Mean motion: 12.53612526 rev/day Decay rate: -1.6e-07 rev/day^2 Epoch rev: 84517 Checksum: 286
Satellite: FO-29 Catalog number: 24278 Epoch time: 15071.86752694 Element set: 999 Inclination: 098.5299 deg RA of node: 053.7337 deg Eccentricity: 0.0349790 Arg of perigee: 320.7278 deg Mean anomaly: 072.6875 deg Mean motion: 13.53046630 rev/day Decay rate: 4.3e-07 rev/day^2 Epoch rev: 91700 Checksum: 354
Satellite: SO-33 Catalog number: 25509 Epoch time: 15072.15854048 Element set: 999 Inclination: 031.4335 deg RA of node: 075.9979 deg Eccentricity: 0.0348341 Arg of perigee: 311.4746 deg Mean anomaly: 045.6458 deg Mean motion: 14.29894669 rev/day Decay rate: 1.227e-05 rev/day^2 Epoch rev: 85566 Checksum: 359
Satellite: RS-22 Catalog number: 27939 Epoch time: 15071.97438948 Element set: 999 Inclination: 097.8311 deg RA of node: 238.2172 deg Eccentricity: 0.0012775 Arg of perigee: 338.8110 deg Mean anomaly: 021.2562 deg Mean motion: 14.65856481 rev/day Decay rate: 9.63e-06 rev/day^2 Epoch rev: 61209 Checksum: 339
Satellite: HO-68 Catalog number: 36122 Epoch time: 15072.01996119 Element set: 999 Inclination: 100.2088 deg RA of node: 120.2044 deg Eccentricity: 0.0007697 Arg of perigee: 344.6330 deg Mean anomaly: 015.4559 deg Mean motion: 13.16324581 rev/day Decay rate: -6.0e-07 rev/day^2 Epoch rev: 25180 Checksum: 287
Satellite: AO-73 Catalog number: 39444 Epoch time: 15071.88951329 Element set: 999 Inclination: 097.7410 deg RA of node: 138.1564 deg Eccentricity: 0.0061777 Arg of perigee: 089.8626 deg Mean anomaly: 270.9665 deg Mean motion: 14.79785368 rev/day Decay rate: 2.574e-05 rev/day^2 Epoch rev: 6917 Checksum: 386
Satellite: EO-79 Catalog number: 40025 Epoch time: 15071.98716925 Element set: 999 Inclination: 097.9629 deg RA of node: 332.0942 deg Eccentricity: 0.0014200 Arg of perigee: 134.4701 deg Mean anomaly: 225.7659 deg Mean motion: 14.86684157 rev/day Decay rate: 2.805e-05 rev/day^2 Epoch rev: 3950 Checksum: 334
/EX SB KEPS @ AMSAT $ORB15072.D Orbital Elements 15072.MICROS
HR AMSAT ORBITAL ELEMENTS FOR THE MICROSATS FROM WA5QGD FORT WORTH,TX March 13, 2015 BID: ORB15072.D TO ALL RADIO AMATEURS BT
Satellite: UO-11 Catalog number: 14781 Epoch time: 15072.17968558 Element set: 999 Inclination: 097.8140 deg RA of node: 131.5769 deg Eccentricity: 0.0009279 Arg of perigee: 033.1043 deg Mean anomaly: 327.0749 deg Mean motion: 14.82215897 rev/day Decay rate: 8.72e-06 rev/day^2 Epoch rev: 66780 Checksum: 349
Satellite: AO-16 Catalog number: 20439 Epoch time: 15071.54083120 Element set: 999 Inclination: 098.5337 deg RA of node: 009.1939 deg Eccentricity: 0.0012037 Arg of perigee: 086.5943 deg Mean anomaly: 328.6420 deg Mean motion: 14.32502239 rev/day Decay rate: 2.13e-06 rev/day^2 Epoch rev: 31290 Checksum: 290
Satellite: LO-19 Catalog number: 20442 Epoch time: 15071.05997097 Element set: 999 Inclination: 098.5047 deg RA of node: 008.5703 deg Eccentricity: 0.0012980 Arg of perigee: 077.0325 deg Mean anomaly: 283.2307 deg Mean motion: 14.32697004 rev/day Decay rate: 1.84e-06 rev/day^2 Epoch rev: 31303 Checksum: 303
Satellite: AO-27 Catalog number: 22825 Epoch time: 15071.84090258 Element set: 999 Inclination: 098.6981 deg RA of node: 021.9821 deg Eccentricity: 0.0007530 Arg of perigee: 226.0096 deg Mean anomaly: 160.0872 deg Mean motion: 14.29846180 rev/day Decay rate: 1.86e-06 rev/day^2 Epoch rev: 11917 Checksum: 320
Satellite: IO-26 Catalog number: 22826 Epoch time: 15071.84368856 Element set: 999 Inclination: 098.6925 deg RA of node: 022.1648 deg Eccentricity: 0.0008164 Arg of perigee: 217.6397 deg Mean anomaly: 142.4214 deg Mean motion: 14.30159400 rev/day Decay rate: 2.01e-06 rev/day^2 Epoch rev: 11931 Checksum: 306
Satellite: GO-32 Catalog number: 25397 Epoch time: 15070.82081699 Element set: 999 Inclination: 098.5088 deg RA of node: 024.3744 deg Eccentricity: 0.0000358 Arg of perigee: 185.4004 deg Mean anomaly: 204.4356 deg Mean motion: 14.23523811 rev/day Decay rate: 1.04e-06 rev/day^2 Epoch rev: 86594 Checksum: 315
Satellite: NO-44 Catalog number: 26931 Epoch time: 15071.44335661 Element set: 999 Inclination: 067.0504 deg RA of node: 066.6371 deg Eccentricity: 0.0006628 Arg of perigee: 264.0349 deg Mean anomaly: 095.9997 deg Mean motion: 14.30270894 rev/day Decay rate: 1.71e-06 rev/day^2 Epoch rev: 70196 Checksum: 331
Satellite: SO-50 Catalog number: 27607 Epoch time: 15072.21282696 Element set: 999 Inclination: 064.5548 deg RA of node: 131.8081 deg Eccentricity: 0.0076093 Arg of perigee: 307.2396 deg Mean anomaly: 052.1779 deg Mean motion: 14.74515458 rev/day Decay rate: 1.008e-05 rev/day^2 Epoch rev: 65713 Checksum: 329
Satellite: CO-55 Catalog number: 27844 Epoch time: 15071.51861521 Element set: 999 Inclination: 098.6979 deg RA of node: 081.4208 deg Eccentricity: 0.0009045 Arg of perigee: 214.8002 deg Mean anomaly: 298.5586 deg Mean motion: 14.21733803 rev/day Decay rate: 3.39e-06 rev/day^2 Epoch rev: 60670 Checksum: 330
Satellite: CO-57 Catalog number: 27848 Epoch time: 15071.65143014 Element set: 999 Inclination: 098.7075 deg RA of node: 081.4082 deg Eccentricity: 0.0008851 Arg of perigee: 222.0331 deg Mean anomaly: 271.2768 deg Mean motion: 14.21390348 rev/day Decay rate: 2.94e-06 rev/day^2 Epoch rev: 60663 Checksum: 314
Satellite: AO-51 Catalog number: 28375 Epoch time: 15071.83612536 Element set: 999 Inclination: 098.2839 deg RA of node: 015.0973 deg Eccentricity: 0.0081560 Arg of perigee: 260.5448 deg Mean anomaly: 098.6516 deg Mean motion: 14.41605572 rev/day Decay rate: 3.17e-06 rev/day^2 Epoch rev: 56260 Checksum: 329
Satellite: CP3 Catalog number: 31129 Epoch time: 15071.89507468 Element set: 999 Inclination: 097.9700 deg RA of node: 041.9097 deg Eccentricity: 0.0095568 Arg of perigee: 253.7204 deg Mean anomaly: 134.2398 deg Mean motion: 14.55570377 rev/day Decay rate: 1.315e-05 rev/day^2 Epoch rev: 41911 Checksum: 333
Satellite: CO-65 Catalog number: 32785 Epoch time: 15071.94655387 Element set: 999 Inclination: 097.6619 deg RA of node: 119.0150 deg Eccentricity: 0.0014142 Arg of perigee: 030.1521 deg Mean anomaly: 091.6045 deg Mean motion: 14.86490775 rev/day Decay rate: 1.972e-05 rev/day^2 Epoch rev: 37193 Checksum: 330
Satellite: PRISM Catalog number: 33493 Epoch time: 15072.11277834 Element set: 999 Inclination: 098.2534 deg RA of node: 264.8702 deg Eccentricity: 0.0015669 Arg of perigee: 285.9921 deg Mean anomaly: 073.9515 deg Mean motion: 14.92341029 rev/day Decay rate: 5.771e-05 rev/day^2 Epoch rev: 33224 Checksum: 327
Satellite: SOHLA-1 Catalog number: 33496 Epoch time: 15071.82365828 Element set: 999 Inclination: 098.1968 deg RA of node: 198.9783 deg Eccentricity: 0.0007549 Arg of perigee: 107.4473 deg Mean anomaly: 045.2372 deg Mean motion: 14.71235871 rev/day Decay rate: 7.25e-06 rev/day^2 Epoch rev: 32900 Checksum: 346
Satellite: TISAT-1 Catalog number: 36799 Epoch time: 15072.19866313 Element set: 999 Inclination: 098.0116 deg RA of node: 171.5327 deg Eccentricity: 0.0013766 Arg of perigee: 158.1495 deg Mean anomaly: 261.2824 deg Mean motion: 14.87804116 rev/day Decay rate: 3.257e-05 rev/day^2 Epoch rev: 25268 Checksum: 335
Satellite: STUDSAT Catalog number: 36801 Epoch time: 15071.80324644 Element set: 999 Inclination: 098.0526 deg RA of node: 186.2892 deg Eccentricity: 0.0006255 Arg of perigee: 115.0363 deg Mean anomaly: 035.9461 deg Mean motion: 15.07452826 rev/day Decay rate: 2.5665e-04 rev/day^2 Epoch rev: 25342 Checksum: 308
Satellite: ALMASAT-1 Catalog number: 38078 Epoch time: 15072.07611224 Element set: 999 Inclination: 069.4589 deg RA of node: 121.5194 deg Eccentricity: 0.0511318 Arg of perigee: 029.6203 deg Mean anomaly: 333.3109 deg Mean motion: 14.70248780 rev/day Decay rate: 4.1506e-04 rev/day^2 Epoch rev: 16086 Checksum: 305
Satellite: XATCOBEO Catalog number: 38082 Epoch time: 14243.34478676 Element set: 999 Inclination: 069.3815 deg RA of node: 097.0364 deg Eccentricity: 0.0033293 Arg of perigee: 225.1799 deg Mean anomaly: 135.4582 deg Mean motion: 16.41261006 rev/day Decay rate: 1.3583328e-01 rev/day^2 Epoch rev: 13623 Checksum: 330
Satellite: CUBEBUG-1 Catalog number: 39153 Epoch time: 15072.15579187 Element set: 999 Inclination: 098.0207 deg RA of node: 156.8075 deg Eccentricity: 0.0017120 Arg of perigee: 199.5807 deg Mean anomaly: 160.4749 deg Mean motion: 14.78864032 rev/day Decay rate: 1.869e-05 rev/day^2 Epoch rev: 10128 Checksum: 334
Satellite: ESTCUBE-1 Catalog number: 39161 Epoch time: 15072.15743143 Element set: 999 Inclination: 098.0753 deg RA of node: 155.9293 deg Eccentricity: 0.0008434 Arg of perigee: 259.4112 deg Mean anomaly: 100.6142 deg Mean motion: 14.70885460 rev/day Decay rate: 1.515e-05 rev/day^2 Epoch rev: 9912 Checksum: 299
Satellite: DUCHIFAT-1 Catalog number: 40021 Epoch time: 15072.13071507 Element set: 999 Inclination: 097.9635 deg RA of node: 332.4328 deg Eccentricity: 0.0014843 Arg of perigee: 134.3038 deg Mean anomaly: 225.9378 deg Mean motion: 14.87343570 rev/day Decay rate: 3.624e-05 rev/day^2 Epoch rev: 3952 Checksum: 301
Satellite: NANOSATCBR1 Catalog number: 40024 Epoch time: 15071.76003551 Element set: 999 Inclination: 097.9610 deg RA of node: 331.9260 deg Eccentricity: 0.0013668 Arg of perigee: 133.8495 deg Mean anomaly: 226.3853 deg Mean motion: 14.87015496 rev/day Decay rate: 3.346e-05 rev/day^2 Epoch rev: 3946 Checksum: 312
